Location: Sevilla
(37.3933°N, 5.9839°W)
Time: 12:42:13
(UTC+02:00)

S-56A Canister/Altair - Pass Details

Date: 30 June 2024
Orbit: 638 x 2488 km, 38.9° (Epoch: 14 July)

Event Time Altitude Azimuth Distance (km) Brightness Sun altitude
Rises 22:56:17 0° 272° (W) 3,722 11.9 -11.7°
Reaches altitude 10° 22:58:32 10° 273° (W) 2,957 11.3 -12.0°
Maximum altitude 23:05:58 82° 2° (N) 1,480 9.0 -13.1°
Drops below altitude 10° 23:17:31 10° 90° (E) 4,442 11.0 -14.8°
Sets 23:21:39 0° 92° (E) 5,682 11.5 -15.3°
